Year,Month,Day,Hour,Minute,Value (Times are PST for temperature in C)
2015,04,21,00,00,14.00
2015,04,21,00,01,14.00
2015,04,21,00,02,13.90
2015,04,21,00,03,13.90
2015,04,21,00,04,13.90
2015,04,21,00,05,13.80
2015,04,21,00,06,13.80
2015,04,21,00,07,13.80
2015,04,21,00,08,13.80
2015,04,21,00,09,13.80
2015,04,21,00,10,13.80
2015,04,21,00,11,13.80
2015,04,21,00,12,13.80
2015,04,21,00,13,13.80
2015,04,21,00,14,13.80
2015,04,21,00,15,13.90
2015,04,21,00,16,13.90
2015,04,21,00,17,13.90
2015,04,21,00,18,13.90
2015,04,21,00,19,14.00
2015,04,21,00,20,14.00
2015,04,21,00,21,14.00
2015,04,21,00,22,14.00
2015,04,21,00,23,14.00
2015,04,21,00,24,14.00
2015,04,21,00,25,13.90
2015,04,21,00,26,13.90
2015,04,21,00,27,13.90
2015,04,21,00,28,13.90
2015,04,21,00,29,13.90
2015,04,21,00,30,13.90
2015,04,21,00,31,13.90
2015,04,21,00,32,13.90
2015,04,21,00,33,13.90
2015,04,21,00,34,13.90
2015,04,21,00,35,13.90
2015,04,21,00,36,13.80
2015,04,21,00,37,13.80
2015,04,21,00,38,13.80
2015,04,21,00,39,13.80
2015,04,21,00,40,13.70
2015,04,21,00,41,13.70
2015,04,21,00,42,13.70
2015,04,21,00,43,13.70
2015,04,21,00,44,13.70
2015,04,21,00,45,13.70
2015,04,21,00,46,13.70
2015,04,21,00,47,13.70
2015,04,21,00,48,13.70
2015,04,21,00,49,13.80
2015,04,21,00,50,13.80
2015,04,21,00,51,13.90
2015,04,21,00,52,13.90
2015,04,21,00,53,13.90
2015,04,21,00,54,14.00
2015,04,21,00,55,14.10
2015,04,21,00,56,14.10
2015,04,21,00,57,14.20
2015,04,21,00,58,14.20
2015,04,21,00,59,14.20
2015,04,21,01,00,14.20
2015,04,21,01,01,14.30
2015,04,21,01,02,14.30
2015,04,21,01,03,14.40
2015,04,21,01,04,14.50
2015,04,21,01,05,14.60
2015,04,21,01,06,14.60
2015,04,21,01,07,14.70
2015,04,21,01,08,14.80
2015,04,21,01,09,14.90
2015,04,21,01,10,15.00
2015,04,21,01,11,15.00
2015,04,21,01,12,15.00
2015,04,21,01,13,15.20
2015,04,21,01,14,15.30
2015,04,21,01,15,15.50
2015,04,21,01,16,15.60
2015,04,21,01,17,15.60
2015,04,21,01,18,15.60
2015,04,21,01,19,15.60
2015,04,21,01,20,15.50
2015,04,21,01,21,15.50
2015,04,21,01,22,15.40
2015,04,21,01,23,15.40
2015,04,21,01,24,15.30
2015,04,21,01,25,15.30
2015,04,21,01,26,15.30
2015,04,21,01,27,15.30
2015,04,21,01,28,15.30
2015,04,21,01,29,15.30
2015,04,21,01,30,15.30
2015,04,21,01,31,15.30
2015,04,21,01,32,15.30
2015,04,21,01,33,15.30
2015,04,21,01,34,15.20
2015,04,21,01,35,15.20
2015,04,21,01,36,15.20
2015,04,21,01,37,15.20
2015,04,21,01,38,15.20
2015,04,21,01,39,15.20
2015,04,21,01,40,15.20
2015,04,21,01,41,15.10
2015,04,21,01,42,15.10
2015,04,21,01,43,15.00
2015,04,21,01,44,15.00
2015,04,21,01,45,15.00
2015,04,21,01,46,15.00
2015,04,21,01,47,15.00
2015,04,21,01,48,15.00
2015,04,21,01,49,15.00
2015,04,21,01,50,14.90
2015,04,21,01,51,14.90
2015,04,21,01,52,14.80
2015,04,21,01,53,14.80
2015,04,21,01,54,14.80
2015,04,21,01,55,14.80
2015,04,21,01,56,14.70
2015,04,21,01,57,14.70
2015,04,21,01,58,14.60
2015,04,21,01,59,14.60
2015,04,21,02,00,14.50
2015,04,21,02,01,14.40
2015,04,21,02,02,14.30
2015,04,21,02,03,14.10
2015,04,21,02,04,14.00
2015,04,21,02,05,14.00
2015,04,21,02,06,13.90
2015,04,21,02,07,13.80
2015,04,21,02,08,13.80
2015,04,21,02,09,13.80
2015,04,21,02,10,13.70
2015,04,21,02,11,13.70
2015,04,21,02,12,13.60
2015,04,21,02,13,13.50
2015,04,21,02,14,13.40
2015,04,21,02,15,13.30
2015,04,21,02,16,13.10
2015,04,21,02,17,13.00
2015,04,21,02,18,13.00
2015,04,21,02,19,13.10
2015,04,21,02,20,13.20
2015,04,21,02,21,13.40
2015,04,21,02,22,13.50
2015,04,21,02,23,13.70
2015,04,21,02,24,13.90
2015,04,21,02,25,14.00
2015,04,21,02,26,14.00
2015,04,21,02,27,14.10
2015,04,21,02,28,14.20
2015,04,21,02,29,14.30
2015,04,21,02,30,14.30
2015,04,21,02,31,14.40
2015,04,21,02,32,14.40
2015,04,21,02,33,14.40
2015,04,21,02,34,14.40
2015,04,21,02,35,14.50
2015,04,21,02,36,14.50
2015,04,21,02,37,14.60
2015,04,21,02,38,14.60
2015,04,21,02,39,14.50
2015,04,21,02,40,14.50
2015,04,21,02,41,14.50
2015,04,21,02,42,14.40
2015,04,21,02,43,14.40
2015,04,21,02,44,14.40
2015,04,21,02,45,14.40
2015,04,21,02,46,14.30
2015,04,21,02,47,14.30
2015,04,21,02,48,14.30
2015,04,21,02,49,14.30
2015,04,21,02,50,14.20
2015,04,21,02,51,14.20
2015,04,21,02,52,14.20
2015,04,21,02,53,14.20
2015,04,21,02,54,14.20
2015,04,21,02,55,14.20
2015,04,21,02,56,14.10
2015,04,21,02,57,14.10
2015,04,21,02,58,14.10
2015,04,21,02,59,14.10
2015,04,21,03,00,14.00
2015,04,21,03,01,14.00
2015,04,21,03,02,14.00
2015,04,21,03,03,13.90
2015,04,21,03,04,13.90
2015,04,21,03,05,13.90
2015,04,21,03,06,13.80
2015,04,21,03,07,13.90
2015,04,21,03,08,13.90
2015,04,21,03,09,13.90
2015,04,21,03,10,13.90
2015,04,21,03,11,13.80
2015,04,21,03,12,13.80
2015,04,21,03,13,13.80
2015,04,21,03,14,13.80
2015,04,21,03,15,13.80
2015,04,21,03,16,13.80
2015,04,21,03,17,13.80
2015,04,21,03,18,13.80
2015,04,21,03,19,13.70
2015,04,21,03,20,13.70
2015,04,21,03,21,13.80
2015,04,21,03,22,13.80
2015,04,21,03,23,13.80
2015,04,21,03,24,13.80
2015,04,21,03,25,13.80
2015,04,21,03,26,13.80
2015,04,21,03,27,13.80
2015,04,21,03,28,13.80
2015,04,21,03,29,13.80
2015,04,21,03,30,13.90
2015,04,21,03,31,13.90
2015,04,21,03,32,13.90
2015,04,21,03,33,13.80
2015,04,21,03,34,13.80
2015,04,21,03,35,13.80
2015,04,21,03,36,13.80
2015,04,21,03,37,13.80
2015,04,21,03,38,13.70
2015,04,21,03,39,13.70
2015,04,21,03,40,13.70
2015,04,21,03,41,13.60
2015,04,21,03,42,13.60
2015,04,21,03,43,13.60
2015,04,21,03,44,13.60
2015,04,21,03,45,13.60
2015,04,21,03,46,13.60
2015,04,21,03,47,13.70
2015,04,21,03,48,13.70
2015,04,21,03,49,13.70
2015,04,21,03,50,13.70
2015,04,21,03,51,13.70
2015,04,21,03,52,13.70
2015,04,21,03,53,13.70
2015,04,21,03,54,13.70
2015,04,21,03,55,13.70
2015,04,21,03,56,13.70
2015,04,21,03,57,13.60
2015,04,21,03,58,13.60
2015,04,21,03,59,13.50
2015,04,21,04,00,13.50
2015,04,21,04,01,13.40
2015,04,21,04,02,13.40
2015,04,21,04,03,13.40
2015,04,21,04,04,13.40
2015,04,21,04,05,13.40
2015,04,21,04,06,13.40
2015,04,21,04,07,13.40
2015,04,21,04,08,13.40
2015,04,21,04,09,13.30
2015,04,21,04,10,13.20
2015,04,21,04,11,13.10
2015,04,21,04,12,13.00
2015,04,21,04,13,12.90
2015,04,21,04,14,12.80
2015,04,21,04,15,12.70
2015,04,21,04,16,12.60
2015,04,21,04,17,12.50
2015,04,21,04,18,12.40
2015,04,21,04,19,12.40
2015,04,21,04,20,12.40
2015,04,21,04,21,12.30
2015,04,21,04,22,12.30
2015,04,21,04,23,12.30
2015,04,21,04,24,12.30
2015,04,21,04,25,12.30
2015,04,21,04,26,12.30
2015,04,21,04,27,12.30
2015,04,21,04,28,12.30
2015,04,21,04,29,12.30
2015,04,21,04,30,12.40
2015,04,21,04,31,12.40
2015,04,21,04,32,12.40
2015,04,21,04,33,12.50
2015,04,21,04,34,12.50
2015,04,21,04,35,12.50
2015,04,21,04,36,12.50
2015,04,21,04,37,12.40
2015,04,21,04,38,12.30
2015,04,21,04,39,12.20
2015,04,21,04,40,12.10
2015,04,21,04,41,12.10
2015,04,21,04,42,12.10
2015,04,21,04,43,12.10
2015,04,21,04,44,12.00
2015,04,21,04,45,12.00
2015,04,21,04,46,12.00
2015,04,21,04,47,12.00
2015,04,21,04,48,12.00
2015,04,21,04,49,12.00
2015,04,21,04,50,12.10
2015,04,21,04,51,12.10
2015,04,21,04,52,12.10
2015,04,21,04,53,12.10
2015,04,21,04,54,12.10
2015,04,21,04,55,12.10
2015,04,21,04,56,12.20
2015,04,21,04,57,12.10
2015,04,21,04,58,12.10
2015,04,21,04,59,12.10
2015,04,21,05,00,12.00
2015,04,21,05,01,12.00
2015,04,21,05,02,11.90
2015,04,21,05,03,11.90
2015,04,21,05,04,11.90
2015,04,21,05,05,11.90
2015,04,21,05,06,11.90
2015,04,21,05,07,11.90
2015,04,21,05,08,11.90
2015,04,21,05,09,12.00
2015,04,21,05,10,12.00
2015,04,21,05,11,12.10
2015,04,21,05,12,12.10
2015,04,21,05,13,12.10
2015,04,21,05,14,12.00
2015,04,21,05,15,12.00
2015,04,21,05,16,11.90
2015,04,21,05,17,11.90
2015,04,21,05,18,11.90
2015,04,21,05,19,11.90
2015,04,21,05,20,11.90
2015,04,21,05,21,11.90
2015,04,21,05,22,11.80
2015,04,21,05,23,11.80
2015,04,21,05,24,11.70
2015,04,21,05,25,11.60
2015,04,21,05,26,11.50
2015,04,21,05,27,11.40
2015,04,21,05,28,11.30
2015,04,21,05,29,11.30
2015,04,21,05,30,11.30
2015,04,21,05,31,11.30
2015,04,21,05,32,11.30
2015,04,21,05,33,11.30
2015,04,21,05,34,11.30
2015,04,21,05,35,11.30
2015,04,21,05,36,11.30
2015,04,21,05,37,11.40
2015,04,21,05,38,11.40
2015,04,21,05,39,11.40
2015,04,21,05,40,11.30
2015,04,21,05,41,11.30
2015,04,21,05,42,11.30
2015,04,21,05,43,11.30
2015,04,21,05,44,11.20
2015,04,21,05,45,11.20
2015,04,21,05,46,11.20
2015,04,21,05,47,11.20
2015,04,21,05,48,11.10
2015,04,21,05,49,11.00
2015,04,21,05,50,11.00
2015,04,21,05,51,10.90
2015,04,21,05,52,10.90
2015,04,21,05,53,10.80
2015,04,21,05,54,10.80
2015,04,21,05,55,10.80
2015,04,21,05,56,10.80
2015,04,21,05,57,10.80
2015,04,21,05,58,10.80
2015,04,21,05,59,10.80
2015,04,21,06,00,10.70
2015,04,21,06,01,10.70
2015,04,21,06,02,10.80
2015,04,21,06,03,10.90
2015,04,21,06,04,11.00
2015,04,21,06,05,11.10
2015,04,21,06,06,11.20
2015,04,21,06,07,11.30
2015,04,21,06,08,11.30
2015,04,21,06,09,11.30
2015,04,21,06,10,11.30
2015,04,21,06,11,11.30
2015,04,21,06,12,11.20
2015,04,21,06,13,11.20
2015,04,21,06,14,11.20
2015,04,21,06,15,11.10
2015,04,21,06,16,11.10
2015,04,21,06,17,11.10
2015,04,21,06,18,11.10
2015,04,21,06,19,11.10
2015,04,21,06,20,11.10
2015,04,21,06,21,11.00
2015,04,21,06,22,11.00
2015,04,21,06,23,10.90
2015,04,21,06,24,10.80
2015,04,21,06,25,10.80
2015,04,21,06,26,10.70
2015,04,21,06,27,10.70
2015,04,21,06,28,10.70
2015,04,21,06,29,10.60
2015,04,21,06,30,10.70
2015,04,21,06,31,10.70
2015,04,21,06,32,10.70
2015,04,21,06,33,10.80
2015,04,21,06,34,10.80
2015,04,21,06,35,10.80
2015,04,21,06,36,10.80
2015,04,21,06,37,10.80
2015,04,21,06,38,10.80
2015,04,21,06,39,10.80
2015,04,21,06,40,10.80
2015,04,21,06,41,10.80
2015,04,21,06,42,10.90
2015,04,21,06,43,10.90
2015,04,21,06,44,11.00
2015,04,21,06,45,11.00
2015,04,21,06,46,11.00
2015,04,21,06,47,11.10
2015,04,21,06,48,11.10
2015,04,21,06,49,11.10
2015,04,21,06,50,11.20
2015,04,21,06,51,11.20
2015,04,21,06,52,11.30
2015,04,21,06,53,11.40
2015,04,21,06,54,11.40
2015,04,21,06,55,11.50
2015,04,21,06,56,11.60
2015,04,21,06,57,11.70
2015,04,21,06,58,11.80
2015,04,21,06,59,11.80
2015,04,21,07,00,11.80
2015,04,21,07,01,11.90
2015,04,21,07,02,11.90
2015,04,21,07,03,11.90
2015,04,21,07,04,11.90
2015,04,21,07,05,12.00
2015,04,21,07,06,12.00
2015,04,21,07,07,12.10
2015,04,21,07,08,12.10
2015,04,21,07,09,12.20
2015,04,21,07,10,12.30
2015,04,21,07,11,12.30
2015,04,21,07,12,12.40
2015,04,21,07,13,12.50
2015,04,21,07,14,12.60
2015,04,21,07,15,12.60
2015,04,21,07,16,12.70
2015,04,21,07,17,12.80
2015,04,21,07,18,12.80
2015,04,21,07,19,12.90
2015,04,21,07,20,12.90
2015,04,21,07,21,12.90
2015,04,21,07,22,12.90
2015,04,21,07,23,12.80
2015,04,21,07,24,12.80
2015,04,21,07,25,12.80
2015,04,21,07,26,12.80
2015,04,21,07,27,12.80
2015,04,21,07,28,12.70
2015,04,21,07,29,12.70
2015,04,21,07,30,12.60
2015,04,21,07,31,12.60
2015,04,21,07,32,12.50
2015,04,21,07,33,12.40
2015,04,21,07,34,12.40
2015,04,21,07,35,12.40
2015,04,21,07,36,12.40
2015,04,21,07,37,12.30
2015,04,21,07,38,12.30
2015,04,21,07,39,12.30
2015,04,21,07,40,12.30
2015,04,21,07,41,12.30
2015,04,21,07,42,12.30
2015,04,21,07,43,12.30
2015,04,21,07,44,12.30
2015,04,21,07,45,12.30
2015,04,21,07,46,12.30
2015,04,21,07,47,12.40
2015,04,21,07,48,12.40
2015,04,21,07,49,12.50
2015,04,21,07,50,12.60
2015,04,21,07,51,12.70
2015,04,21,07,52,12.70
2015,04,21,07,53,12.70
2015,04,21,07,54,12.80
2015,04,21,07,55,12.80
2015,04,21,07,56,12.80
2015,04,21,07,57,12.90
2015,04,21,07,58,12.90
2015,04,21,07,59,13.00
2015,04,21,08,00,13.10
2015,04,21,08,01,13.10
2015,04,21,08,02,13.20
2015,04,21,08,03,13.30
2015,04,21,08,04,13.30
2015,04,21,08,05,13.40
2015,04,21,08,06,13.50
2015,04,21,08,07,13.60
2015,04,21,08,08,13.60
2015,04,21,08,09,13.70
2015,04,21,08,10,13.70
2015,04,21,08,11,13.80
2015,04,21,08,12,13.80
2015,04,21,08,13,13.80
2015,04,21,08,14,13.80
2015,04,21,08,15,13.90
2015,04,21,08,16,13.90
2015,04,21,08,17,13.90
2015,04,21,08,18,13.90
2015,04,21,08,19,14.00
2015,04,21,08,20,14.10
2015,04,21,08,21,14.10
2015,04,21,08,22,14.10
2015,04,21,08,23,14.20
2015,04,21,08,24,14.20
2015,04,21,08,25,14.20
2015,04,21,08,26,14.30
2015,04,21,08,27,14.30
2015,04,21,08,28,14.30
2015,04,21,08,29,14.30
2015,04,21,08,30,14.30
2015,04,21,08,31,14.30
2015,04,21,08,32,14.30
2015,04,21,08,33,14.30
2015,04,21,08,34,14.40
2015,04,21,08,35,14.50
2015,04,21,08,36,14.50
2015,04,21,08,37,14.50
2015,04,21,08,38,14.40
2015,04,21,08,39,14.40
2015,04,21,08,40,14.40
2015,04,21,08,41,14.40
2015,04,21,08,42,14.50
2015,04,21,08,43,14.60
2015,04,21,08,44,14.60
2015,04,21,08,45,14.60
2015,04,21,08,46,14.60
2015,04,21,08,47,14.60
2015,04,21,08,48,14.70
2015,04,21,08,49,14.70
2015,04,21,08,50,14.70
2015,04,21,08,51,14.70
2015,04,21,08,52,14.70
2015,04,21,08,53,14.70
2015,04,21,08,54,14.70
2015,04,21,08,55,14.70
2015,04,21,08,56,14.70
2015,04,21,08,57,14.70
2015,04,21,08,58,14.70
2015,04,21,08,59,14.70
2015,04,21,09,00,14.70
2015,04,21,09,01,14.70
2015,04,21,09,02,14.60
2015,04,21,09,03,14.50
2015,04,21,09,04,14.50
2015,04,21,09,05,14.40
2015,04,21,09,06,14.30
2015,04,21,09,07,14.30
2015,04,21,09,08,14.30
2015,04,21,09,09,14.30
2015,04,21,09,10,14.30
2015,04,21,09,11,14.30
2015,04,21,09,12,14.30
2015,04,21,09,13,14.30
2015,04,21,09,14,14.30
2015,04,21,09,15,14.20
2015,04,21,09,16,14.10
2015,04,21,09,17,14.10
2015,04,21,09,18,14.00
2015,04,21,09,19,14.00
2015,04,21,09,20,13.90
2015,04,21,09,21,14.00
2015,04,21,09,22,14.10
2015,04,21,09,23,14.10
2015,04,21,09,24,14.10
2015,04,21,09,25,14.10
2015,04,21,09,26,14.10
2015,04,21,09,27,14.10
2015,04,21,09,28,14.20
2015,04,21,09,29,14.20
2015,04,21,09,30,14.30
2015,04,21,09,31,14.40
2015,04,21,09,32,14.50
2015,04,21,09,33,14.60
2015,04,21,09,34,14.60
2015,04,21,09,35,14.70
2015,04,21,09,36,14.70
2015,04,21,09,37,14.70
2015,04,21,09,38,14.60
2015,04,21,09,39,14.50
2015,04,21,09,40,14.40
2015,04,21,09,41,14.40
2015,04,21,09,42,14.40
2015,04,21,09,43,14.40
2015,04,21,09,44,14.40
2015,04,21,09,45,14.40
2015,04,21,09,46,14.40
2015,04,21,09,47,14.30
2015,04,21,09,48,14.40
2015,04,21,09,49,14.40
2015,04,21,09,50,14.50
2015,04,21,09,51,14.50
2015,04,21,09,52,14.50
2015,04,21,09,53,14.60
2015,04,21,09,54,14.60
2015,04,21,09,55,14.60
2015,04,21,09,56,14.60
2015,04,21,09,57,14.60
2015,04,21,09,58,14.60
2015,04,21,09,59,14.60
2015,04,21,10,00,14.70
2015,04,21,10,01,14.80
2015,04,21,10,02,14.80
2015,04,21,10,03,14.90
2015,04,21,10,04,14.90
2015,04,21,10,05,14.70
2015,04,21,10,06,14.60
2015,04,21,10,07,14.50
2015,04,21,10,08,14.40
2015,04,21,10,09,14.30
2015,04,21,10,10,14.30
2015,04,21,10,11,14.30
2015,04,21,10,12,14.20
2015,04,21,10,13,14.10
2015,04,21,10,14,14.10
2015,04,21,10,15,14.20
2015,04,21,10,16,14.10
2015,04,21,10,17,14.00
2015,04,21,10,18,13.90
2015,04,21,10,19,13.80
2015,04,21,10,20,13.70
2015,04,21,10,21,13.70
2015,04,21,10,22,13.70
2015,04,21,10,23,13.70
2015,04,21,10,24,13.70
2015,04,21,10,25,13.70
2015,04,21,10,26,13.60
2015,04,21,10,27,13.60
2015,04,21,10,28,13.50
2015,04,21,10,29,13.40
2015,04,21,10,30,13.30
2015,04,21,10,31,13.20
2015,04,21,10,32,13.10
2015,04,21,10,33,13.00
2015,04,21,10,34,12.90
2015,04,21,10,35,12.90
2015,04,21,10,36,12.80
2015,04,21,10,37,12.80
2015,04,21,10,38,12.70
2015,04,21,10,39,12.60
2015,04,21,10,40,12.60
2015,04,21,10,41,12.60
2015,04,21,10,42,12.60
2015,04,21,10,43,12.70
2015,04,21,10,44,12.70
2015,04,21,10,45,12.80
2015,04,21,10,46,12.80
2015,04,21,10,47,12.80
2015,04,21,10,48,12.80
2015,04,21,10,49,12.80
2015,04,21,10,50,12.80
2015,04,21,10,51,12.80
2015,04,21,10,52,12.80
2015,04,21,10,53,12.70
2015,04,21,10,54,12.70
2015,04,21,10,55,12.70
2015,04,21,10,56,12.70
2015,04,21,10,57,12.70
2015,04,21,10,58,12.70
2015,04,21,10,59,12.60
2015,04,21,11,00,12.60
2015,04,21,11,01,12.60
2015,04,21,11,02,12.60
2015,04,21,11,03,12.60
2015,04,21,11,04,12.60
2015,04,21,11,05,12.70
2015,04,21,11,06,12.70
2015,04,21,11,07,12.70
2015,04,21,11,08,12.70
2015,04,21,11,09,12.70
2015,04,21,11,10,12.70
2015,04,21,11,11,12.70
2015,04,21,11,12,12.60
2015,04,21,11,13,12.60
2015,04,21,11,14,12.60
2015,04,21,11,15,12.60
2015,04,21,11,16,12.60
2015,04,21,11,17,12.70
2015,04,21,11,18,12.60
2015,04,21,11,19,12.60
2015,04,21,11,20,12.60
2015,04,21,11,21,12.70
2015,04,21,11,22,12.70
2015,04,21,11,23,12.70
2015,04,21,11,24,12.70
2015,04,21,11,25,12.80
2015,04,21,11,26,12.80
2015,04,21,11,27,12.80
2015,04,21,11,28,12.90
2015,04,21,11,29,13.10
2015,04,21,11,30,13.10
2015,04,21,11,31,13.20
2015,04,21,11,32,13.20
2015,04,21,11,33,13.20
2015,04,21,11,34,13.30
2015,04,21,11,35,13.40
2015,04,21,11,36,13.50
2015,04,21,11,37,13.40
2015,04,21,11,38,13.30
2015,04,21,11,39,13.30
2015,04,21,11,40,13.30
2015,04,21,11,41,13.30
2015,04,21,11,42,13.30
2015,04,21,11,43,13.30
2015,04,21,11,44,13.40
2015,04,21,11,45,13.40
2015,04,21,11,46,13.30
2015,04,21,11,47,13.30
2015,04,21,11,48,13.30
2015,04,21,11,49,13.20
2015,04,21,11,50,13.10
2015,04,21,11,51,13.10
2015,04,21,11,52,13.10
2015,04,21,11,53,13.10
2015,04,21,11,54,13.20
2015,04,21,11,55,13.20
2015,04,21,11,56,13.20
2015,04,21,11,57,13.20
2015,04,21,11,58,13.10
2015,04,21,11,59,13.10
2015,04,21,12,00,13.10
2015,04,21,12,01,13.10
2015,04,21,12,02,13.10
2015,04,21,12,03,13.00
2015,04,21,12,04,13.00
2015,04,21,12,05,12.90
2015,04,21,12,06,12.80
2015,04,21,12,07,12.80
2015,04,21,12,08,12.80
2015,04,21,12,09,12.70
2015,04,21,12,10,12.70
2015,04,21,12,11,12.60
2015,04,21,12,12,12.50
2015,04,21,12,13,12.50
2015,04,21,12,14,12.40
2015,04,21,12,15,12.40
2015,04,21,12,16,12.50
2015,04,21,12,17,12.50
2015,04,21,12,18,12.50
2015,04,21,12,19,12.50
2015,04,21,12,20,12.40
2015,04,21,12,21,12.40
2015,04,21,12,22,12.30
2015,04,21,12,23,12.30
2015,04,21,12,24,12.40
2015,04,21,12,25,12.40
2015,04,21,12,26,12.30
2015,04,21,12,27,12.30
2015,04,21,12,28,12.40
2015,04,21,12,29,12.40
2015,04,21,12,30,12.40
2015,04,21,12,31,12.50
2015,04,21,12,32,12.60
2015,04,21,12,33,12.60
2015,04,21,12,34,12.60
2015,04,21,12,35,12.60
2015,04,21,12,36,12.60
2015,04,21,12,37,12.60
2015,04,21,12,38,12.70
2015,04,21,12,39,12.70
2015,04,21,12,40,12.70
2015,04,21,12,41,12.70
2015,04,21,12,42,12.60
2015,04,21,12,43,12.60
2015,04,21,12,44,12.50
2015,04,21,12,45,12.40
2015,04,21,12,46,12.40
2015,04,21,12,47,12.30
2015,04,21,12,48,12.30
2015,04,21,12,49,12.30
2015,04,21,12,50,12.20
2015,04,21,12,51,12.20
2015,04,21,12,52,12.20
2015,04,21,12,53,12.10
2015,04,21,12,54,12.10
2015,04,21,12,55,12.10
2015,04,21,12,56,12.10
2015,04,21,12,57,12.10
2015,04,21,12,58,12.00
2015,04,21,12,59,12.00
2015,04,21,13,00,12.00
2015,04,21,13,01,11.90
2015,04,21,13,02,11.90
2015,04,21,13,03,11.80
2015,04,21,13,04,11.80
2015,04,21,13,05,11.80
2015,04,21,13,06,11.80
2015,04,21,13,07,11.70
2015,04,21,13,08,11.70
2015,04,21,13,09,11.70
2015,04,21,13,10,11.70
2015,04,21,13,11,11.70
2015,04,21,13,12,11.60
2015,04,21,13,13,11.50
2015,04,21,13,14,11.40
2015,04,21,13,15,11.40
2015,04,21,13,16,11.40
2015,04,21,13,17,11.40
2015,04,21,13,18,11.40
2015,04,21,13,19,11.40
2015,04,21,13,20,11.40
2015,04,21,13,21,11.40
2015,04,21,13,22,11.40
2015,04,21,13,23,11.40
2015,04,21,13,24,11.40
2015,04,21,13,25,11.30
2015,04,21,13,26,11.30
2015,04,21,13,27,11.30
2015,04,21,13,28,11.20
2015,04,21,13,29,11.20
2015,04,21,13,30,11.20
2015,04,21,13,31,11.20
2015,04,21,13,32,11.20
2015,04,21,13,33,11.20
2015,04,21,13,34,11.20
2015,04,21,13,35,11.20
2015,04,21,13,36,11.20
2015,04,21,13,37,11.20
2015,04,21,13,38,11.20
2015,04,21,13,39,11.20
2015,04,21,13,40,11.20
2015,04,21,13,41,11.20
2015,04,21,13,42,11.20
2015,04,21,13,43,11.20
2015,04,21,13,44,11.20
2015,04,21,13,45,11.20
2015,04,21,13,46,11.20
2015,04,21,13,47,11.20
2015,04,21,13,48,11.20
2015,04,21,13,49,11.20
2015,04,21,13,50,11.30
2015,04,21,13,51,11.30
2015,04,21,13,52,11.30
2015,04,21,13,53,11.20
2015,04,21,13,54,11.20
2015,04,21,13,55,11.10
2015,04,21,13,56,11.10
2015,04,21,13,57,11.10
2015,04,21,13,58,11.00
2015,04,21,13,59,11.00
2015,04,21,14,00,11.00
2015,04,21,14,01,10.90
2015,04,21,14,02,10.90
2015,04,21,14,03,10.90
2015,04,21,14,04,10.90
2015,04,21,14,05,10.90
2015,04,21,14,06,10.80
2015,04,21,14,07,10.80
2015,04,21,14,08,10.80
2015,04,21,14,09,10.80
2015,04,21,14,10,10.80
2015,04,21,14,11,10.70
2015,04,21,14,12,10.70
2015,04,21,14,13,10.70
2015,04,21,14,14,10.70
2015,04,21,14,15,10.70
2015,04,21,14,16,10.70
2015,04,21,14,17,10.70
2015,04,21,14,18,10.60
2015,04,21,14,19,10.60
2015,04,21,14,20,10.60
2015,04,21,14,21,10.60
2015,04,21,14,22,10.50
2015,04,21,14,23,10.50
2015,04,21,14,24,10.40
2015,04,21,14,25,10.40
2015,04,21,14,26,10.40
2015,04,21,14,27,10.30
2015,04,21,14,28,10.30
2015,04,21,14,29,10.30
2015,04,21,14,30,10.30
2015,04,21,14,31,10.20
2015,04,21,14,32,10.20
2015,04,21,14,33,10.20
2015,04,21,14,34,10.20
2015,04,21,14,35,10.20
2015,04,21,14,36,10.20
2015,04,21,14,37,10.20
2015,04,21,14,38,10.20
2015,04,21,14,39,10.10
2015,04,21,14,40,10.10
2015,04,21,14,41,10.10
2015,04,21,14,42,10.10
2015,04,21,14,43,10.10
2015,04,21,14,44,10.10
2015,04,21,14,45,10.00
2015,04,21,14,46,10.10
2015,04,21,14,47,10.00
2015,04,21,14,48,10.10
2015,04,21,14,49,10.10
2015,04,21,14,50,10.10
2015,04,21,14,51,10.10
2015,04,21,14,52,10.10
2015,04,21,14,53,10.10
2015,04,21,14,54,10.10
2015,04,21,14,55,10.10
2015,04,21,14,56,10.10
2015,04,21,14,57,10.00
2015,04,21,14,58,10.00
2015,04,21,14,59,9.90
2015,04,21,15,00,9.90
2015,04,21,15,01,9.90
2015,04,21,15,02,9.80
2015,04,21,15,03,9.80
2015,04,21,15,04,9.80
2015,04,21,15,05,9.80
2015,04,21,15,06,9.70
2015,04,21,15,07,9.70
2015,04,21,15,08,9.70
2015,04,21,15,09,9.70
2015,04,21,15,10,9.70
2015,04,21,15,11,9.70
2015,04,21,15,12,9.70
2015,04,21,15,13,9.70
2015,04,21,15,14,9.60
2015,04,21,15,15,9.60
2015,04,21,15,16,9.60
2015,04,21,15,17,9.60
2015,04,21,15,18,9.60
2015,04,21,15,19,9.60
2015,04,21,15,20,9.50
2015,04,21,15,21,9.50
2015,04,21,15,22,9.50
2015,04,21,15,23,9.40
2015,04,21,15,24,9.40
2015,04,21,15,25,9.40
2015,04,21,15,26,9.40
2015,04,21,15,27,9.40
2015,04,21,15,28,9.30
2015,04,21,15,29,9.30
2015,04,21,15,30,9.30
2015,04,21,15,31,9.30
2015,04,21,15,32,9.30
2015,04,21,15,33,9.30
2015,04,21,15,34,9.30
2015,04,21,15,35,9.30
2015,04,21,15,36,9.30
2015,04,21,15,37,9.30
2015,04,21,15,38,9.30
2015,04,21,15,39,9.30
2015,04,21,15,40,9.20
2015,04,21,15,41,9.20
2015,04,21,15,42,9.20
2015,04,21,15,43,9.20
2015,04,21,15,44,9.20
2015,04,21,15,45,9.10
2015,04,21,15,46,9.10
2015,04,21,15,47,9.10
2015,04,21,15,48,9.10
2015,04,21,15,49,9.10
2015,04,21,15,50,9.10
2015,04,21,15,51,9.10
2015,04,21,15,52,9.10
2015,04,21,15,53,9.10
2015,04,21,15,54,9.10
2015,04,21,15,55,9.00
2015,04,21,15,56,9.00
2015,04,21,15,57,9.10
2015,04,21,15,58,9.00
2015,04,21,15,59,9.00
2015,04,21,16,00,9.00
2015,04,21,16,01,8.90
2015,04,21,16,02,8.90
2015,04,21,16,03,8.90
2015,04,21,16,04,8.90
2015,04,21,16,05,8.90
2015,04,21,16,06,8.90
2015,04,21,16,07,8.90
2015,04,21,16,08,8.90
2015,04,21,16,09,8.90
2015,04,21,16,10,8.90
2015,04,21,16,11,8.90
2015,04,21,16,12,8.90
2015,04,21,16,13,8.90
2015,04,21,16,14,8.90
2015,04,21,16,15,8.90
2015,04,21,16,16,8.90
2015,04,21,16,17,8.90
2015,04,21,16,18,8.90
2015,04,21,16,19,8.90
2015,04,21,16,20,8.90
2015,04,21,16,21,8.90
2015,04,21,16,22,8.90
2015,04,21,16,23,8.90
2015,04,21,16,24,8.90
2015,04,21,16,25,8.90
2015,04,21,16,26,8.90
2015,04,21,16,27,8.90
2015,04,21,16,28,8.90
2015,04,21,16,29,9.00
2015,04,21,16,30,8.90
2015,04,21,16,31,8.90
2015,04,21,16,32,8.90
2015,04,21,16,33,8.90
2015,04,21,16,34,8.90
2015,04,21,16,35,8.90
2015,04,21,16,36,8.90
2015,04,21,16,37,8.90
2015,04,21,16,38,8.90
2015,04,21,16,39,8.90
2015,04,21,16,40,8.90
2015,04,21,16,41,8.90
2015,04,21,16,42,8.90
2015,04,21,16,43,8.80
2015,04,21,16,44,8.80
2015,04,21,16,45,8.80
2015,04,21,16,46,8.80
2015,04,21,16,47,8.80
2015,04,21,16,48,8.80
2015,04,21,16,49,8.80
2015,04,21,16,50,8.80
2015,04,21,16,51,8.80
2015,04,21,16,52,8.80
2015,04,21,16,53,8.80
2015,04,21,16,54,8.80
2015,04,21,16,55,8.80
2015,04,21,16,56,8.80
2015,04,21,16,57,8.80
2015,04,21,16,58,8.80
2015,04,21,16,59,8.80
2015,04,21,17,00,8.80
2015,04,21,17,01,8.80
2015,04,21,17,02,8.80
2015,04,21,17,03,8.80
2015,04,21,17,04,8.80
2015,04,21,17,05,8.80
2015,04,21,17,06,8.80
2015,04,21,17,07,8.80
2015,04,21,17,08,8.80
2015,04,21,17,09,8.80
2015,04,21,17,10,8.80
2015,04,21,17,11,8.80
2015,04,21,17,12,8.80
2015,04,21,17,13,8.80
2015,04,21,17,14,8.80
2015,04,21,17,15,8.80
2015,04,21,17,16,8.80
2015,04,21,17,17,8.80
2015,04,21,17,18,8.80
2015,04,21,17,19,8.80
2015,04,21,17,20,8.80
2015,04,21,17,21,8.80
2015,04,21,17,22,8.80
2015,04,21,17,23,8.80
2015,04,21,17,24,8.80
2015,04,21,17,25,8.80